Home > Weather > Ramsey > Past weeks

Flag for Isle of Man Weather for the Past 2 Weeks in Ramsey, Isle of Man

Now
37 °F

Passing clouds.


Feels Like: 33 °F
Forecast: 40 / 42 °F
Wind: 6 mph from North

Location: Isle Of Man / Ronaldsway Airport

Current Time: Feb 11, 2016 at 9:59:53 AM

Latest Report: Feb 11, 2016 at 9:20 AM


Visibility: N/A

Pressure: 29.59 "Hg

Humidity: 87%

Dew point: 34 °F

Location of RamseyLocation

Historic Weather in Ramsey — Graph

°F

Ramsey Temperature Yesterday

Maximum temperature yesterday: 46 °F (at 2:50 PM)
Minimum temperature yesterday: 41 °F (at 9:20 AM)
Average temperature yesterday: 43 °F

High & Low Weather Summary for the Past Weeks

 TemperatureHumidityPressure
High54 °F (Jan 27, 9:50 AM)100% (Jan 28, 11:50 PM)30.24 "Hg (Jan 28, 11:50 PM)
Low34 °F (Feb 11, 4:50 AM)50% (Jan 29, 9:20 AM)28.56 "Hg (Feb 8, 6:20 AM)
Average45 °F81%29.53 "Hg
* Reported Jan 27 8:20 AM — Feb 11 8:50 AM, Ramsey, Weather by CustomWeather, © 2016

Note: Actual official high and low records may vary slightly from our data, if they occured in-between our weather recording intervals... More about our weather records

Advertising

Ramsey Weather History for the Previous 24 Hours

 ConditionsComfort  
Time TempWeatherWind HumidityBarometerVisibility
8:50 AM
Thu, Feb 11
39 °FScattered showers. Passing clouds.5 mph81%29.59 "HgN/A
8:20 AM39 °FScattered showers. Passing clouds.6 mph81%29.59 "HgN/A
7:50 AM39 °FScattered showers. Scattered clouds.9 mph81%29.56 "HgN/A
7:20 AM37 °FPassing clouds.7 mph87%29.56 "HgN/A
6:50 AM36 °FPassing clouds.6 mph93%29.56 "HgN/A
6:20 AM36 °FPassing clouds.5 mph93%29.56 "HgN/A
5:50 AM36 °FPassing clouds.6 mph93%29.56 "HgN/A
5:20 AM34 °FPassing clouds.5 mph93%29.56 "HgN/A
4:50 AM34 °FPassing clouds.5 mph93%29.59 "HgN/A
3:50 AM36 °FPassing clouds.5 mph87%29.59 "HgN/A
2:50 AM36 °FPassing clouds.1 mph93%29.59 "HgN/A
1:50 AM37 °FPassing clouds.6 mph87%29.59 "HgN/A
12:50 AM41 °FPassing clouds.6 mph76%29.59 "HgN/A
11:50 PM
Wed, Feb 10
41 °FPassing clouds.3 mph76%29.59 "HgN/A
10:50 PM41 °FPassing clouds.3 mph76%29.59 "HgN/A
9:50 PM43 °FPassing clouds.6 mph71%29.56 "HgN/A
9:20 PM43 °FPassing clouds.7 mph76%29.56 "HgN/A
8:50 PM41 °FPassing clouds.6 mph81%29.56 "HgN/A
8:20 PM43 °FPassing clouds.7 mph76%29.56 "HgN/A
7:50 PM43 °FPassing clouds.7 mph71%29.56 "HgN/A
7:20 PM43 °FPassing clouds.8 mph71%29.56 "HgN/A
6:50 PM43 °FPassing clouds.10 mph66%29.53 "HgN/A
6:20 PM43 °FPassing clouds.9 mph71%29.53 "HgN/A
5:50 PM43 °FPassing clouds.10 mph66%29.53 "HgN/A
5:20 PM43 °FPassing clouds.9 mph66%29.53 "HgN/A
4:20 PM45 °FScattered clouds.12 mph66%29.50 "HgN/A
3:50 PM45 °FPassing clouds.12 mph66%29.50 "HgN/A
3:20 PM45 °FPassing clouds.14 mph71%29.50 "HgN/A
2:50 PM46 °FPassing clouds.13 mph71%29.50 "HgN/A
2:20 PM45 °FScattered clouds.13 mph76%29.50 "HgN/A
1:50 PM45 °FScattered clouds.13 mph76%29.47 "HgN/A
1:20 PM45 °FScattered clouds.13 mph76%29.47 "HgN/A
12:50 PM45 °FScattered clouds.12 mph76%29.47 "HgN/A
12:20 PM45 °FScattered clouds.13 mph81%29.47 "HgN/A
11:50 AM45 °FScattered clouds.15 mph81%29.47 "HgN/A
11:20 AM45 °FPassing clouds.12 mph81%29.47 "HgN/A
9:20 AM41 °FScattered showers. Scattered clouds.10 mph87%29.42 "HgN/A
Weather by CustomWeather, © 2016

See weather overviewHow to use our weather pages